Weather in Costa Brava

Spain     41°43′48″N   2°55′51″E
temp.,
°C
wind,
m/s
gust,
m/s
humid.,
%
clouds,
%
prec.,
mm/h
press.,
hPa
HPBL,
m
20 april, tue
tue2023:00+11sw23885 0.0 1017105
02:00+10w228889 0.0 101770
05:00+10wsw128796 0.0 101652
08:00+11wsw1281100 0.0 101678
11:00+14s2364100 0.0 1016553
14:00+14s3473100 0.0 1015453
17:00+15sse4470100 0.1 1014570
20:00+13se3483100 0.1 1014209
21 april, wed
wed2123:00+13sse2288100 0.0 101532
02:00+12sse1189100 0.1 101411
05:00+11e1291100 0.2 101339
08:00+11se4596100 4.3 1014401
11:00+11se3494100 4.3 1015411
14:00+12e2387100 5.0 1015468
17:00+12se338793 0.3 1014514
20:00+12ese3488100 0.6 1015446
22 april, thu
thu2223:00+11ene3489100 0.1 1016306
02:00+11ne3389100 0.1 1016265
05:00+11ne3488100 0.0 1015315
08:00+11nne3487100 0.1 1016311
11:00+13ne3578100 0.1 1016709
14:00+13ene458199 0.3 1016528
17:00+14ene4571100 0.1 1016710
20:00+13ne457577 0.1 1016293
23 april, fri
fri2323:00+10n34905 0.0 1018107
02:00+9n35915 0.0 1018120
05:00+9nnw45895 0.0 1018110
08:00+10n34800 0.0 101896
11:00+16ene34580 0.0 1019676
14:00+17e45600 0.0 1019812
17:00+16ese34610 0.0 1018622
20:00+13se11750 0.0 101938
24 april, sat
sat2423:00+11nw11840 0.0 102129
02:00+10wnw22850 0.0 102036
05:00+10n11835 0.0 102036
08:00+11n2277100 0.0 102048
11:00+16ese2260100 0.0 1021425
14:00+16sse3359100 0.0 1021514
17:00+16s345711 0.0 1020435
20:00+14s227486 0.0 101930